Weather History for Logan, UT

Change the Weather History Date:

Wednesday, February 5, 2014

  Actual Average Record
Temperature  
Mean Temperature 14 °F -  
Max Temperature 18 °F 32 °F 67 °F (1963)
Min Temperature 9 °F 10 °F -20 °F (1982)
Degree Days  
Heating Degree Days 52    
Moisture  
Dew Point 11 °F    
Average Humidity 84    
Maximum Humidity 92    
Minimum Humidity 76    
Precipitation  
Precipitation 0.05 in - - ()
Sea Level Pressure  
Sea Level Pressure 30.12 in    
Wind  
Wind Speed 3 mph (NNW)    
Max Wind Speed 7 mph    
Max Gust Speed -    
Visibility 3 miles    
Events Snow    
Averages and records for this station are not official NWS values.
T = Trace of Precipitation, MM = Missing Value Source: NWS Daily Summary

Daily Weather History Graph

Daily Weather History Graph

Search for Another Location

Airport:

Trip Planner

Search our weather history database for the weather conditions in past years. The results will help you decide how hot, cold, wet, or windy it might be!

Date:

Astronomy

Feb. 05, 2014 Rise Set
Actual Time 7:35 AM MST 5:48 PM MST
Civil Twilight 7:06 AM MST 6:17 PM MST
Nautical Twilight 6:33 AM MST 6:50 PM MST
Astronomical Twilight 6:00 AM MST 7:22 PM MST
Moon 10:46 AM MST (2/5) No Moon Set
Length of Visible Light 11h 11m
Length of Day
10h 12m
Waxing Crescent, 40% of the Moon is Illuminated
Feb 5
Waxing Crescent
Feb 6
First Quarter
Feb 14
Full
Feb 22
Last Quarter
Mar 1
New

Hourly Weather History & Observations

Time (MST) Temp. Windchill Dew Point Humidity Pressure Visibility Wind Dir Wind Speed Gust Speed Precip Events Conditions
12:51 AM 9.0 °F -2.2 °F 3.9 °F 80% 30.27 in 10.0 mi North 6.9 mph - N/A   Overcast
1:51 AM 10.0 °F - 5.0 °F 80% 30.26 in 10.0 mi Calm Calm - N/A   Overcast
2:51 AM 10.0 °F 3.6 °F 3.9 °F 76% 30.27 in 10.0 mi North 3.5 mph - N/A   Overcast
3:51 AM 10.0 °F - 5.0 °F 80% 30.26 in 10.0 mi Calm Calm - N/A   Overcast
4:51 AM 10.0 °F - 5.0 °F 80% 30.25 in 4.0 mi Calm Calm - 0.00 in Snow Light Snow
5:51 AM 10.9 °F - 6.1 °F 81% 30.25 in 3.0 mi Calm Calm - 0.00 in Snow Light Snow
6:11 AM 10.9 °F - 8.1 °F 88% 30.09 in 2.5 mi Calm Calm - 0.00 in Snow Light Snow
6:23 AM 10.9 °F 4.7 °F 7.0 °F 84% 30.09 in 3.0 mi NW 3.5 mph - 0.00 in Snow Light Snow
6:51 AM 10.9 °F 2.9 °F 7.0 °F 84% 30.25 in 6.0 mi NW 4.6 mph - 0.00 in Snow Light Snow
7:51 AM 10.9 °F - 7.0 °F 84% 30.26 in 4.0 mi Calm Calm - 0.00 in Snow Light Snow
8:05 AM 10.9 °F - 7.0 °F 84% 30.10 in 2.5 mi Calm Calm - 0.00 in Snow Light Snow
8:18 AM 12.0 °F - 8.1 °F 84% 30.10 in 1.8 mi Calm Calm - 0.00 in Snow Light Snow
8:51 AM 12.0 °F - 8.1 °F 84% 30.28 in 1.2 mi Calm Calm - 0.00 in Snow Light Snow
9:34 AM 12.9 °F - 9.0 °F 84% 30.11 in 0.8 mi Calm Calm - 0.00 in Snow Light Snow
9:49 AM 12.2 °F - 8.6 °F 85% 30.11 in 1.0 mi Calm Calm - 0.01 in Snow Light Snow
9:51 AM 12.9 °F - 9.0 °F 84% 30.28 in 1.2 mi Calm Calm - 0.01 in Snow Light Snow
10:01 AM 12.9 °F 6.9 °F 9.0 °F 84% 30.11 in 2.5 mi West 3.5 mph - 0.00 in Snow Light Snow
10:10 AM 12.9 °F 6.9 °F 9.0 °F 84% 30.11 in 1.5 mi WSW 3.5 mph - 0.00 in Snow Light Snow
10:33 AM 14.0 °F 8.2 °F 10.0 °F 84% 30.11 in 2.5 mi West 3.5 mph - 0.00 in Snow Light Snow
10:51 AM 14.0 °F - 10.0 °F 84% 30.28 in 1.5 mi Calm Calm - 0.00 in Snow Light Snow
10:59 AM 14.0 °F 8.2 °F 10.0 °F 84% 30.11 in 1.8 mi West 3.5 mph - 0.00 in Snow Light Snow
11:04 AM 14.0 °F 8.2 °F 10.0 °F 84% 30.11 in 3.0 mi WNW 3.5 mph - 0.00 in Snow Light Snow
11:13 AM 15.1 °F - 10.0 °F 80% 30.11 in 2.5 mi Calm Calm - 0.00 in Snow Light Snow
11:23 AM 15.1 °F - 10.9 °F 84% 30.11 in 1.5 mi Calm Calm - 0.00 in Snow Light Snow
11:35 AM 16.0 °F - 10.9 °F 81% 30.11 in 2.0 mi Calm Calm - 0.00 in Snow Light Snow
11:45 AM 15.1 °F - 10.9 °F 84% 30.10 in 1.8 mi Calm Calm - 0.00 in Snow Light Snow
11:51 AM 15.1 °F - 10.9 °F 84% 30.27 in 1.8 mi Calm Calm - 0.00 in Snow Light Snow
12:06 PM 16.0 °F - 10.9 °F 81% 30.09 in 2.0 mi Calm Calm - 0.00 in Snow Light Snow
12:43 PM 16.0 °F - 12.0 °F 84% 30.08 in 1.8 mi Calm Calm - 0.00 in Snow Light Snow
12:51 PM 17.1 °F 11.7 °F 12.0 °F 81% 30.24 in 1.8 mi North 3.5 mph - 0.00 in Snow Light Snow
12:54 PM 17.1 °F 11.7 °F 12.0 °F 81% 30.07 in 2.0 mi North 3.5 mph - 0.00 in Snow Light Snow
1:01 PM 17.1 °F 11.7 °F 12.0 °F 81% 30.07 in 1.2 mi North 3.5 mph - 0.00 in Snow Light Snow
1:22 PM 17.1 °F 8.7 °F 12.0 °F 81% 30.06 in 2.0 mi North 5.8 mph - 0.00 in Snow Light Snow
1:31 PM 17.1 °F 10.0 °F 12.0 °F 81% 30.06 in 1.2 mi North 4.6 mph - 0.00 in Snow Light Snow
1:51 PM 17.1 °F 7.6 °F 12.0 °F 81% 30.22 in 1.5 mi North 6.9 mph - 0.00 in Snow Light Snow
2:32 PM 18.0 °F 8.7 °F 14.0 °F 84% 30.05 in 3.0 mi NNW 6.9 mph - 0.01 in Snow Light Snow
2:42 PM 18.0 °F 8.7 °F 12.9 °F 81% 30.05 in 1.8 mi NNW 6.9 mph - 0.01 in Snow Light Snow
2:51 PM 18.0 °F 8.7 °F 14.0 °F 84% 30.21 in 0.8 mi NNW 6.9 mph - 0.01 in Snow Light Snow
3:01 PM 18.0 °F 8.7 °F 14.0 °F 84% 30.05 in 1.0 mi NNW 6.9 mph - 0.00 in Snow Light Snow
3:31 PM 18.0 °F 12.7 °F 14.0 °F 84% 30.05 in 0.8 mi NW 3.5 mph - 0.00 in Snow Light Snow
3:37 PM 18.0 °F 11.1 °F 14.0 °F 84% 30.05 in 1.2 mi NW 4.6 mph - 0.00 in Snow Light Snow
3:51 PM 18.0 °F 11.1 °F 14.0 °F 84% 30.21 in 1.0 mi NW 4.6 mph - 0.00 in Snow Light Snow
4:06 PM 18.0 °F - 14.0 °F 84% 30.05 in 2.0 mi Calm Calm - 0.00 in Snow Light Snow
4:13 PM 18.0 °F - 14.0 °F 84% 30.05 in 1.5 mi Calm Calm - 0.00 in Snow Light Snow
4:19 PM 18.0 °F - 14.0 °F 84% 30.05 in 1.8 mi Calm Calm - 0.00 in Snow Light Snow
4:24 PM 18.0 °F - 14.0 °F 84% 30.05 in 2.5 mi Calm Calm - 0.00 in Snow Light Snow
4:32 PM 18.0 °F - 15.1 °F 88% 30.05 in 3.0 mi Calm Calm - 0.00 in Snow Light Snow
4:51 PM 18.0 °F 12.7 °F 14.0 °F 84% 30.20 in 7.0 mi South 3.5 mph - 0.00 in   Overcast
5:51 PM 18.0 °F 12.7 °F 14.0 °F 84% 30.19 in 10.0 mi SSW 3.5 mph - N/A   Overcast
6:51 PM 16.0 °F 8.8 °F 12.0 °F 84% 30.20 in 5.0 mi North 4.6 mph - N/A   Overcast
7:19 PM 17.1 °F 10.0 °F 14.0 °F 88% 30.04 in 2.0 mi North 4.6 mph - 0.00 in Snow Light Snow
7:26 PM 17.1 °F 11.7 °F 14.0 °F 88% 30.04 in 1.5 mi North 3.5 mph - 0.01 in Snow Light Snow
7:51 PM 17.1 °F 11.7 °F 14.0 °F 88% 30.19 in 1.5 mi NNW 3.5 mph - 0.01 in Snow Light Snow
8:20 PM 17.1 °F 10.0 °F 14.0 °F 88% 30.04 in 2.5 mi NNW 4.6 mph - 0.00 in Snow Light Snow
8:40 PM 17.1 °F 10.0 °F 14.0 °F 88% 30.04 in 1.2 mi North 4.6 mph - 0.00 in Snow Light Snow
8:51 PM 18.0 °F 12.7 °F 15.1 °F 88% 30.19 in 1.5 mi NNE 3.5 mph - 0.00 in Snow Light Snow
9:42 PM 18.0 °F - 14.0 °F 84% 30.03 in 2.0 mi Calm Calm - 0.01 in Snow Light Snow
9:51 PM 17.1 °F - 14.0 °F 88% 30.18 in 2.0 mi Calm Calm - 0.01 in Snow Light Snow
9:56 PM 17.1 °F 11.7 °F 14.0 °F 88% 30.03 in 2.5 mi NW 3.5 mph - 0.00 in Snow Light Snow
10:01 PM 17.1 °F 11.7 °F 14.0 °F 88% 30.03 in 3.0 mi WNW 3.5 mph - 0.00 in Snow Light Snow
10:10 PM 17.1 °F 10.0 °F 14.0 °F 88% 30.03 in 2.5 mi WSW 4.6 mph - 0.01 in Snow Light Snow
10:22 PM 17.1 °F 11.7 °F 14.0 °F 88% 30.02 in 3.0 mi WSW 3.5 mph - 0.01 in Snow Light Snow
10:51 PM 16.0 °F - 14.0 °F 92% 30.17 in 3.0 mi Calm Calm - 0.01 in Snow Light Snow
10:57 PM 16.0 °F - 14.0 °F 92% 30.02 in 2.5 mi Calm Calm - 0.00 in Snow Light Snow
11:27 PM 16.0 °F 10.4 °F 12.9 °F 88% 30.01 in 1.8 mi NNE 3.5 mph - 0.00 in Snow Light Snow
11:37 PM 16.0 °F 10.4 °F 12.9 °F 88% 30.01 in 2.5 mi NE 3.5 mph - 0.00 in Snow Light Snow
11:44 PM 16.0 °F 10.4 °F 12.9 °F 88% 30.01 in 2.5 mi NE 3.5 mph - 0.00 in Snow Light Snow
11:51 PM 16.0 °F 10.4 °F 12.9 °F 88% 30.15 in 3.0 mi NNE 3.5 mph - 0.00 in Snow Light Snow